LATEST WEATHER OBSERVATIONS RECORDED AT FUA'AMOTU AIRPORT
DATE TIME CLOUD WIND KT TEMP
(C)
DewPoint
(C)
RH(%) WEATHER MSL PRESS.
(MB)
19.04.2020 11:00PM PARTLY CLOUDY E 7 25.2 23 87.63889 NIL 1020.6
19.04.2020 10:00PM PARTLY CLOUDY E 8 25.2 22.7 86.06126 NIL 1020.5
19.04.2020 09:00PM CLOUDY E 8 25.1 22.6 86.05136 NIL 1020.1
19.04.2020 08:00PM CLOUDY E 7 25.1 22 82.96834 NIL 1019.3
19.04.2020 07:00PM CLOUDY E 8 25.1 22 82.96834 NIL 1018.2
19.04.2020 06:00PM PARTLY CLOUDY E 9 25.6 22 80.54023 NIL 1017.8
19.04.2020 05:00PM PARTLY CLOUDY E 9 27 22.5 76.4475 NIL 1017.4
19.04.2020 12:00AM PARTLY CLOUDY E 8 24.8 21.2 80.43299 NIL 1012.5
18.04.2020 11:00PM PARTLY CLOUDY E 6 24.5 21.4 82.89686 NIL 1018.4
18.04.2020 10:00PM PARTLY CLOUDY E 6 24.5 21.2 81.88708 NIL 1018.4
18.04.2020 09:00PM PARTLY CLOUDY E 6 24.5 20.6 78.92194 NIL 1018.1
18.04.2020 08:00PM PARTLY CLOUDY E 7 24.4 20.5 78.90755 NIL 1017.6
18.04.2020 07:00PM PARTLY CLOUDY E 7 24.7 20.5 77.50531 NIL 1017
18.04.2020 06:00PM PARTLY CLOUDY E 8 26.1 20.8 72.65251 NIL 1016.2
18.04.2020 05:00PM FINE E 8 27.2 21.1 69.3675 NIL 1016
18.04.2020 04:00PM FINE E 8 27.9 21.7 69.07983 NIL 1015.7
18.04.2020 03:00PM FINE E 9 27.5 21.3 69.00168 NIL 1015.5
18.04.2020 02:00PM FINE E 9 27.7 21.5 69.04079 NIL 1015.9
18.04.2020 01:00PM FINE E 10 27.5 20.9 67.32832 NIL 1016.4
18.04.2020 12:00PM FINE E 9 27.9 21.4 67.82387 NIL 1016.8
18.04.2020 11:00AM FINE E 8 27.5 21.6 70.28044 NIL 1017.3
18.04.2020 10:00AM FINE E 7 26.8 21.3 71.89092 NIL 1017.4